Weather History for Glasgow, United Kingdom

Change the Weather History Date:

Saturday, September 22, 2012

  Actual Average Record
Temperature  
Mean Temperature 42 °F -  
Max Temperature 55 °F 55 °F 69 °F (1997)
Min Temperature 30 °F 43 °F 30 °F (2012)
Degree Days  
Heating Degree Days 22    
Moisture  
Dew Point 38 °F    
Average Humidity 83    
Maximum Humidity 100    
Minimum Humidity 54    
Precipitation  
Precipitation 0.00 in - - ()
Sea Level Pressure  
Sea Level Pressure 30.13 in    
Wind  
Wind Speed 2 mph ()    
Max Wind Speed 8 mph    
Max Gust Speed -    
Visibility 6.0 miles    
Events Fog    
Averages and records for this station are not official NWS values.
T = Trace of Precipitation, MM = Missing Value Source: Averaged Metar Reports

Daily Weather History Graph

Daily Weather History Graph

Search for Another Location

Airport:

Trip Planner

Search our weather history database for the weather conditions in past years. The results will help you decide how hot, cold, wet, or windy it might be!

Date:

Astronomy

Sep. 22, 2012 Rise Set
Actual Time 7:03 AM BST 7:15 PM BST
Civil Twilight 6:26 AM BST 7:52 PM BST
Nautical Twilight 5:42 AM BST 8:36 PM BST
Astronomical Twilight 4:55 AM BST 9:23 PM BST
Moon 3:15 PM BST (9/22) 10:59 PM BST (9/22)
Length of Visible Light 13h 26m
Length of Day
12h 12m
Waxing Crescent, 46% of the Moon is Illuminated
Sep 22
Waxing Crescent
Sep 22
First Quarter
Sep 30
Full
Oct 8
Last Quarter
Oct 15
New

Hourly Weather History & Observations

Time (BST) Temp. Windchill Dew Point Humidity Pressure Visibility Wind Dir Wind Speed Gust Speed Precip Events Conditions
12:20 AM 35.6 °F - 35.6 °F 100% 30.12 in - West 2.3 mph - N/A   Clear
12:50 AM 35.6 °F 32.8 °F 35.6 °F 100% 30.12 in - Variable 3.5 mph - N/A   Clear
1:20 AM 33.8 °F 29.6 °F 33.8 °F 100% 30.12 in - WSW 4.6 mph - N/A   Clear
1:50 AM 35.6 °F - 35.6 °F 100% 30.12 in 6.2 mi Calm Calm - N/A   Unknown
2:20 AM 35.6 °F - 33.8 °F 93% 30.12 in 6.2 mi Calm Calm - N/A   Unknown
2:50 AM 33.8 °F - 33.8 °F 100% 30.15 in 4.3 mi West 2.3 mph - N/A   Unknown
3:20 AM 35.6 °F - 33.8 °F 93% 30.15 in 1.6 mi Calm Calm - N/A   Mist
3:50 AM 33.8 °F - 33.8 °F 100% 30.15 in - Calm Calm - N/A   Clear
4:20 AM 33.8 °F - 32.0 °F 93% 30.12 in 6.2 mi Calm Calm - N/A Fog Shallow Fog
4:50 AM 32.0 °F 28.7 °F 32.0 °F 100% 30.15 in 6.2 mi West 3.5 mph - N/A Fog Patches of Fog
5:20 AM 33.8 °F - 33.8 °F 100% 30.15 in 6.2 mi WSW 2.3 mph - N/A Fog Patches of Fog
5:50 AM 32.0 °F - 32.0 °F 100% 30.15 in 6.2 mi Calm Calm - N/A Fog Patches of Fog
6:20 AM 32.0 °F - 32.0 °F 100% 30.15 in 6.2 mi Calm Calm - N/A Fog Patches of Fog
6:50 AM 32.0 °F - 30.2 °F 93% 30.15 in 6.2 mi Calm Calm - N/A Fog Shallow Fog
7:20 AM 32.0 °F - 32.0 °F 100% 30.15 in 6.2 mi Variable 2.3 mph - N/A Fog Shallow Fog
7:50 AM 30.2 °F - 30.2 °F 100% 30.15 in 6.2 mi Variable 2.3 mph - N/A Fog Shallow Fog
8:20 AM 32.0 °F - 32.0 °F 100% 30.15 in 6.2 mi Calm Calm - N/A Fog Unknown
8:50 AM 33.8 °F - 33.8 °F 100% 30.18 in 6.2 mi West 2.3 mph - N/A   Partly Cloudy
9:20 AM 39.2 °F - 39.2 °F 100% 30.18 in - Calm Calm - N/A   Clear
9:50 AM 41.0 °F - 39.2 °F 93% 30.18 in - Variable 2.3 mph - N/A   Clear
10:20 AM 44.6 °F - 39.2 °F 81% 30.18 in - Calm Calm - N/A   Clear
10:50 AM 46.4 °F - 41.0 °F 81% 30.18 in 6.2 mi Variable 2.3 mph - N/A   Partly Cloudy
11:20 AM 48.2 °F - 41.0 °F 76% 30.15 in 6.2 mi Variable 3.5 mph - N/A   Partly Cloudy
11:50 AM 50.0 °F - 41.0 °F 71% 30.15 in 6.2 mi Variable 2.3 mph - N/A   Partly Cloudy
12:20 PM 51.8 °F - 41.0 °F 67% 30.15 in 6.2 mi Variable 2.3 mph - N/A   Partly Cloudy
12:50 PM 53.6 °F - 42.8 °F 67% 30.15 in 6.2 mi Variable 2.3 mph - N/A   Partly Cloudy
1:20 PM 53.6 °F - 41.0 °F 62% 30.15 in 6.2 mi Variable 2.3 mph - N/A   Partly Cloudy
1:50 PM 53.6 °F - 41.0 °F 62% 30.15 in 6.2 mi SW 4.6 mph - N/A   Partly Cloudy
2:20 PM 55.4 °F - 41.0 °F 58% 30.12 in 6.2 mi SW 5.8 mph - N/A   Partly Cloudy
2:50 PM 55.4 °F - 39.2 °F 54% 30.12 in 6.2 mi SSW 6.9 mph - N/A   Partly Cloudy
3:20 PM 53.6 °F - 39.2 °F 58% 30.12 in 6.2 mi SSW 8.1 mph - N/A   Partly Cloudy
3:50 PM 55.4 °F - 41.0 °F 58% 30.12 in 6.2 mi SW 8.1 mph - N/A   Partly Cloudy
4:20 PM 55.4 °F - 39.2 °F 54% 30.12 in 6.2 mi SW 6.9 mph - N/A   Partly Cloudy
4:50 PM 53.6 °F - 41.0 °F 62% 30.12 in 6.2 mi WSW 5.8 mph - N/A   Partly Cloudy
5:20 PM 53.6 °F - 41.0 °F 62% 30.12 in 6.2 mi West 4.6 mph - N/A   Partly Cloudy
5:50 PM 55.4 °F - 42.8 °F 63% 30.09 in 6.2 mi West 4.6 mph - N/A   Partly Cloudy
6:20 PM 50.0 °F - 41.0 °F 71% 30.09 in 6.2 mi WSW 4.6 mph - N/A   Partly Cloudy
6:50 PM 48.2 °F - 41.0 °F 76% 30.09 in 6.2 mi SW 4.6 mph - N/A   Partly Cloudy
7:20 PM 48.2 °F - 41.0 °F 76% 30.09 in 6.2 mi SW 4.6 mph - N/A   Partly Cloudy
7:50 PM 48.2 °F - 42.8 °F 82% 30.09 in 6.2 mi Variable 3.5 mph - N/A   Scattered Clouds
8:20 PM 46.4 °F - 42.8 °F 87% 30.09 in 6.2 mi Calm Calm - N/A   Partly Cloudy
8:50 PM 46.4 °F - 42.8 °F 87% 30.09 in 6.2 mi Calm Calm - N/A   Partly Cloudy
9:20 PM 46.4 °F - 42.8 °F 87% 30.09 in - Calm Calm - N/A   Clear
9:50 PM 48.2 °F - 42.8 °F 82% 30.09 in - Variable 2.3 mph - N/A   Clear
10:20 PM 46.4 °F 44.3 °F 42.8 °F 87% 30.09 in - East 4.6 mph - N/A   Clear
10:50 PM 44.6 °F 42.2 °F 42.8 °F 93% 30.09 in - East 4.6 mph - N/A   Clear
11:20 PM 44.6 °F 42.2 °F 41.0 °F 87% 30.09 in - NE 4.6 mph - N/A   Clear
11:50 PM 44.6 °F 41.4 °F 41.0 °F 87% 30.09 in - NE 5.8 mph - N/A   Clear